Location: Tamazert
(32.6352°N, 5.2072°W)
Time: 15:36:35
(UTC+00:00)

CZ-3 R/B - Pass Details

Date: 22 May 2022
Orbit: 424 x 10170 km, 28.3° (Epoch: 28 June)

Event Time Altitude Azimuth Distance (km) Brightness Sun altitude
Rises 02:44:07 0° 252° (WSW) 15,154 7.1 -26.5°
Reaches altitude 10° 03:01:48 10° 253° (WSW) 13,295 6.8 -24.0°
Maximum altitude 03:53:00 76° 177° (S) 3,429 4.1 -16.1°
Drops below altitude 10° 04:04:09 10° 93° (E) 3,857 5.4 -14.2°
Sets 04:06:07 0° 91° (E) 4,391 5.8 -13.9°
